Regional Weather Roundup
Issued by NWS State College, PA

Home | Current Version | Previous Version | Graphics & Text | Print | Product List | Glossary On
Versions: 1 2 3 4 5 6 7 8 9 10 11 12 13 14 15 16 17 18 19 20 21 22 23 24 25 26 27 28 29 30 31 32 33 34 35 36 37 38 39 40 41 42 43 44 45 46 47 48 49 50
000
ASUS41 KCTP 062010
RWRCTP

REGIONAL WEATHER ROUNDUP
NATIONAL WEATHER SERVICE STATE COLLEGE PA
300 PM EST SAT FEB 06 2016

Note: "fair" indicates few or no clouds below 12,000 feet with no
significant weather and/or obstructions to visibility.

* = STATION THAT DOES NOT REPORT PRECIPITATION /E.G. RAIN...SNOW...ETC/
    THUNDER OR FOG.

PAZ002>004-007>009-013>016-020>023-029>032-062100-
WESTERN PENNSYLVANIA

CITY           SKY/WX    TMP DP  RH WIND       PRES   REMARKS
ERIE           SUNNY     34  22  61 W13       30.22F
MEADVILLE      SUNNY     38  22  52 W9        30.17F
FRANKLIN*      SUNNY     39  18  41 SW9       30.19F
NEW CASTLE     FAIR      40  17  39 W10       30.21F
BEAVER COUNTY  SUNNY     43  16  33 SW9       30.20
BUTLER*        SUNNY     41  18  38 W6        30.23F
PITTSBURGH INT PTSUNNY   42  15  33 SW8       30.20F
PITTSBURGH     SUNNY     44  16  32 SW12G21   30.19F
INDIANA*       SUNNY     43  19  39 W12G20    30.21F
LATROBE        SUNNY     43  19  39 SW14      30.21F
WASHINGTON CO* SUNNY     45  16  31 SW13      30.21F
$$

PAZ004>006-010>012-017>019-024>028-033>037-041-042-045-046-049>053-062100-
CENTRAL PENNSYLVANIA

CITY           SKY/WX    TMP DP  RH WIND       PRES   REMARKS
BRADFORD       SUNNY     36  16  44 W9        30.13S
DUBOIS         SUNNY     39  17  41 W13       30.15F
CLEARFIELD     SUNNY     41  17  38 SW16G31   30.17F
JOHNSTOWN      SUNNY     38  16  40 W12G21    30.15F
ALTOONA        MOSUNNY   42  18  37 SW13      30.19F
STATE COLLEGE  SUNNY     43  19  39 W15G21    30.18F
WILLIAMSPORT   PTSUNNY   45  18  34 S8        30.20F
SELINSGROVE    MOSUNNY   44  20  38 SW9       30.24F
FT INDIANTOWN  CLOUDY    41  19  40 S9        30.26F
CAPITAL CITY   MOSUNNY   42  17  36 S10       30.27F
HARRISBURG     PTSUNNY   43  18  36 S10       30.27F
YORK           MOSUNNY   41  18  39 SW8       30.27F
$$

PAZ038>040-043-044-047-048-054-055-060>062-067>071-062100-
EASTERN PENNSYLVANIA

CITY           SKY/WX    TMP DP  RH WIND       PRES   REMARKS
SCRANTON       MOSUNNY   41  17  38 SW13G22   30.19F
MOUNT POCONO   PTSUNNY   34  18  52 SW10      30.18F
ALLENTOWN      MOSUNNY   41  20  43 SW10      30.28F
QUAKERTOWN*    CLOUDY    39  21  48 SW9       30.29F
READING        MOSUNNY   41  20  43 SW10      30.28F
LANCASTER      MOSUNNY   40  20  44 S10       30.28F
COATESVILLE    CLOUDY    39  23  52 VRB7      30.30F
POTTSTOWN      CLOUDY    39  20  46 SW8       30.31F
BLUE BELL        N/A     39  23  52 S6        30.29F
DOYLESTOWN     MOSUNNY   39  15  37 S10       30.29F
WILLOW GROVE   NOT AVBL
NORTH PHILA    MOSUNNY   42  19  39 SW9       30.33F
PHILADELPHIA   PTSUNNY   42  19  39 S10       30.33F
$$



USA.gov is the U.S. government's official web portal to all federal, state and local government web resources and services.